www.pogodaiklimat.ru
ПОГОДА в Цитеко
Время
(UTC), дата
06 27.05
09 27.05
12 27.05
15 27.05
18 27.05
21 27.05
00 28.05
03 28.05
06 28.05
09 28.05
12 28.05
15 28.05
18 28.05
21 28.05
00 29.05
03 29.05
06 29.05
09 29.05
12 29.05
15 29.05
18 29.05
21 29.05
00 30.05
03 30.05
06 30.05
09 30.05
12 30.05
15 30.05
18 30.05
21 30.05
00 31.05
03 31.05
06 31.05
09 31.05
12 31.05
15 31.05
18 31.05
21 31.05
00 1.06
03 1.06
06 1.06
09 1.06
12 1.06
15 1.06
18 1.06
21 1.06
00 2.06
03 2.06
06 2.06
09 2.06
12 2.06
15 2.06
18 2.06
21 2.06
00 3.06
03 3.06
Ветер
(напр.,м/с)
Видим. Явления Облачность Т
(С)
Тd
(С)
f
(%)
Тe
(С)
Тes
(С)
Комфортность P
(гПа)
Po
(гПа)
Тmin
(С)
Tmax
(С)
R
(мм)
R24
(мм)
S
(см)
СЗ 2 10 км гроза без осадков 9/6 600 м
[Cb cap As trans Ci fib]
+26.2 +21.1 74 +33 +37 очень
душно
1010.0 904.5
штиль 0 4000 м гроза, ливневой дождь ?/? +23.6 +21.9 90 +30 +30 очень
душно
1009.3 903.9 0.6
штиль 0 8000 м гроза, ливневой дождь 10/9 600 м
[Cb cap As trans]
+20.2 +19.3 95 +24 +24 комфорт 1011.6 906.0 +26.2 27
штиль 0 7000 м слаб. дождь {гроза} 10/9 600 м
[Cb cap As trans]
+19.8 +19.4 98 +23 +23 комфорт 1012.3 906.6 4
штиль 0 6000 м осадки на расстоянии 10/8 600 м
[Cb cap As trans]
+20.2 +19.6 96 +24 +24 комфорт 1011.0 905.5 0.1
штиль 0 7000 м 9/6 600 м
[Sc As trans Ci fib]
+20.0 +19.1 95 +23 +23 комфорт 1009.8 904.4
штиль 0 8000 м 9/5 600 м
[Sc Ac As Ci fib]
+20.0 +18.8 93 +23 +23 комфорт 1011.5 905.9 +19.4 31
СЗ 2 10 км 9/4 600 м
[Cu med, cong Ac As Ci fib]
+24.6 +20.3 77 +30 +35 очень
душно
1012.5 906.8
СЗ 2 8000 м гроза без осадков 9/8 600 м
[Cb cap As trans Ci fib]
+25.6 +21.3 77 +32 +35 очень
душно
1010.1 904.6
штиль 0 9000 м 9/6 600 м
[Cu med, cong Ac As Ci sp]
+24.9 +21.8 83 +32 +33 очень
душно
1008.8 903.7
штиль 0 6000 м 9/5 600 м
[Cu med, cong Ac As Ci sp]
+23.1 +21.2 89 +31 +31 очень
душно
1010.8 905.3 +27.0
штиль 0 6000 м зарница 9/6 600 м
[Cb cap As trans Ci fib]
+21.6 +19.5 88 +27 +27 душно 1011.6 906.0
штиль 0 6000 м в посл. час гроза 9/8 600 м
[Cu med, cong As trans Ci fib]
+20.5 +19.5 94 +24 +24 комфорт 1010.9 905.4
штиль 0 6000 м 10/8 600 м
[Sc As trans Ci fib]
+20.8 +20.2 96 +25 +25 комфорт 1010.5 905.0
штиль 0 9000 м 9/3 600 м
[Sc Ac As Ci fib]
+20.7 +18.6 88 +24 +25 комфорт 1011.5 905.9 +20.0
ЮЗ 1 10 км 9/3 600 м
[Cu med, cong Ac As Ci fib]
+25.2 +21.8 81 +32 +38 очень
душно
1012.3 906.6
З 1 8000 м осадки на расстоянии 10/8 600 м
[Cu med, cong As trans Ci fib]
+25.4 +21.7 80 +33 +34 очень
душно
1010.1 904.7
ЮВ 2 3000 м гроза, ливневой дождь 10/8 600 м
[Cb cap As op]
+20.4 +20.1 98 +25 +25 комфорт 1009.9 904.4 41
штиль 0 5000 м в посл. час дождь {гроза} 9/6 600 м
[Sc Ac As Ci ing]
+20.5 +19.8 96 +24 +24 комфорт 1011.4 905.8 +26.8 1
штиль 0 6000 м {дождь} 9/5 600 м
[Sc As trans Ci fib]
+19.9 +18.9 94 +23 +23 комфорт 1012.5 906.8 0.3
штиль 0 6000 м 9/6 600 м
[Sc As trans Ci fib]
+19.6 +18.4 93 +22 +22 комфорт 1011.4 905.8
штиль 0 6000 м 8/5 600 м
[Sc Ac As Ci fib]
+19.0 +17.8 93 +20 +20 1010.4 904.9
штиль 0 8000 м 5/1 600 м
[Sc diur, vesp As trans Ci fib]
+20.0 +17.7 87 +23 +24 комфорт 1011.7 906.1 +18.6 42
штиль 0 10 км 4/3 600 м
[Cu hum As trans Ci fib]
+25.0 +21.3 80 +32 +43 очень
душно
1011.5 905.9
ЮВ 2 6000 м гроза, ливневой дождь 10/8 600 м
[Cb cap As op]
+21.2 +19.4 89 +26 +27 душно 1010.2 904.7 48
штиль 0 8000 м осадки на расстоянии {гроза} 9/6 600 м
[Cb cap As trans Ci fib]
+24.0 +21.7 87 +31 +32 очень
душно
1009.4 904.0 12
штиль 0 6000 м слаб. дождь {гроза} 10/9 600 м
[Cb cap As trans]
+22.4 +21.3 94 +29 +29 очень
душно
1011.9 906.2 +26.2 0.2
штиль 0 6000 м в посл. час дождь {гроза} 10/8 600 м
[Cb cap As op]
+20.8 +20.2 96 +25 +25 комфорт 1012.6 906.9 1
штиль 0 6000 м {гроза, дождь} 9/6 600 м
[Sc Ac As Ci sp]
+20.2 +19.6 96 +24 +24 комфорт 1011.9 906.2 1
штиль 0 6000 м 8/5 600 м
[Sc As trans Ci fib]
+19.4 +18.8 96 +22 +22 комфорт 1010.7 905.1
штиль 0 7000 м 9/5 600 м
[Sc As trans Ci fib]
+19.5 +18.9 96 +22 +22 комфорт 1012.6 906.9 +19.1 63
штиль 0 8000 м мгла 10/8 600 м
[Cu med, cong As trans Ci fib]
+24.0 +21.9 88 +31 +33 очень
душно
1013.3 907.5
штиль 0 8000 м в посл. час дождь 9/5 600 м
[Cu med, cong As trans Ci fib]
+24.6 +21.2 81 +31 +37 очень
душно
1011.1 905.6 0.0
З 2 6000 м слаб. дождь 10/10 600 м
[Cu med, cong]
+23.4 +22.0 92 +32 +32 очень
душно
1010.2 904.7 3
штиль 0 4000 м в посл. час дождь 10/10 600 м
[Cu med, cong]
+21.6 +20.7 95 +27 +27 душно 1012.0 906.3 +24.6 2
штиль 0 5000 м 9/6 600 м
[Sc As trans Ci fib]
+20.0 +19.4 96 +23 +23 комфорт 1013.2 907.4
штиль 0 5000 м 9/5 600 м
[Sc As trans Ci fib]
+19.4 +18.5 95 +22 +22 комфорт 1011.3 905.7
штиль 0 6000 м 8/4 600 м
[Sc Ac As Ci fib]
+19.1 +17.1 88 +21 +21 комфорт 1010.3 904.8
штиль 0 9000 м 9/1 600 м
[Sc As trans Ci fib]
+19.4 +17.6 89 +21 +22 комфорт 1011.6 906.0 +19.0 4
штиль 0 10 км 9/3 600 м
[Cu med, cong As trans Ci fib]
+24.6 +20.4 77 +30 +37 очень
душно
1012.4 906.7
штиль 0 8000 м гроза, ливневой дождь 10/8 600 м
[Cb cap As trans Ci fib]
+23.8 +22.0 90 +31 +33 очень
душно
1010.3 904.8 12
штиль 0 8000 м {гроза, дождь} 9/6 600 м
[Cu med, cong As trans Ci sp]
+24.8 +21.4 81 +31 +33 очень
душно
1009.2 903.8 0.0
штиль 0 8000 м {гроза, дождь} 10/8 600 м
[Cu med, cong As op]
+22.6 +21.5 94 +30 +30 очень
душно
1010.7 905.2 +26.0 0.0
штиль 0 6000 м 9/8 600 м
[Sc As trans Ci fib]
+20.8 +19.6 93 +25 +25 комфорт 1013.2 907.4
штиль 0 6000 м 10/9 600 м
[Sc As trans]
+20.6 +19.7 95 +25 +25 комфорт 1011.4 905.8
штиль 0 6000 м гроза без осадков 10/9 600 м
[Cb cap As trans]
+20.0 +19.3 96 +23 +23 комфорт 1010.1 904.7
штиль 0 9000 м 10/4 600 м
[Sc Ac As Ci fib]
+20.2 +19.0 93 +24 +24 комфорт 1011.0 905.4 +19.4 12
СЗ 2 10 км 9/4 600 м
[Cu med, cong Ac As Ci fib]
+24.8 +20.8 78 +31 +36 очень
душно
1012.0 906.3
З 1 9000 м 9/6 600 м
[Cu med, cong As trans Ci fib]
+25.6 +21.6 79 +33 +37 очень
душно
1009.0 903.6
штиль 0 7000 м гроза без осадков 10/9 600 м
[Cb cap As trans]
+23.6 +21.3 87 +30 +30 очень
душно
1008.2 902.9
штиль 0 4000 м гроза, ливневой дождь 10/9 600 м
[Cb cap As trans]
+21.4 +20.5 95 +27 +27 душно 1010.4 904.9 +26.6 2
штиль 0 4000 м слаб. дождь {гроза} 10/8 600 м
[Cb cap As op]
+20.6 +19.7 95 +25 +25 комфорт 1012.2 906.4 6
штиль 0 6000 м в посл. час гроза {дождь} 9/8 600 м
[Cb cap As op Ci sp]
+20.0 +19.4 96 +23 +23 комфорт 1010.4 904.9 6
штиль 0 6000 м {гроза} 9/8 600 м
[Sc As trans Ci sp]
+19.6 +18.7 95 +22 +22 комфорт 1009.6 904.2
Ю 1 8000 м 9/3 600 м
[Cu med, cong Ac As Ci fib]
+20.5 +18.3 87 +25 +26 комфорт 1010.5 905.0 +19.6 8
В 2 11 км 5/3 600 м
[Cu med, cong As trans Ci fib]
+25.4 +19.6 70 +31 +38 очень
душно
1010.9 905.4
Местоположение метеостанции Цитеко (Индонезия): широта -6.70 долгота 106.93 высота над уровнем моря 300 м.
В архиве по умолчанию представлена погода в Цитеко за последнюю неделю. Архивные данные за месяц целиком и за предыдущие месяцы, начиная с января 2011 года, Вы можете получить, выбрав интересующий диапазон дат из раскрывающегося списка и нажав кнопку "Найти!".
*Определитесь, кто Вы:
Внимание! Время в таблицах - всемирное. Для получения местного времени необходимо прибавить поправку, которая равна 7 ч.
Смотрите также архив погоды в соседних городах и на ближайших метеорологических станциях:
Партнеры нашего сайта:      
Пояснения к столбцам:
  • Ветер - указаны скорость ветра в м/с - средняя за 10 мин, порывы в срок и между сроками (в фигурных скобках) и направление, откуда дует ветер: С - северный,
  • СВ - северо-восточный, В - восточный, ЮВ - юго-восточный, Ю - южный, ЮЗ - юго-западный, З - западный, СЗ - северо-западный.
  • Видимость - горизонтальная дальность видимости в метрах или километрах. При видимости от 1 до 10 км при отсутствии осадков обычно наблюдается дымка, при ухудшении видимости до 1 км и менее - туман. В сухую погоду видимость может ухудшаться дымом, пылью или мглою.
  • Явления - указаны атмосферные явления, наблюдавшиеся в срок или в последний час перед сроком; фигурными скобками обозначены явления, наблюдавшиеся между сроками (за 1-3 часа до срока); квадратными скобками обозначены град или гололедные отложения с указанием их диаметра в мм.
  • Облачность - указаны через наклонную черту общая и нижняя облачность в баллах и высота нижней границы облаков в метрах; квадратными скобками обозначены формы облаков: Ci - перистые, Cs - перисто-слоистые, Cc - перисто-кучевые, Ac - высококучевые, As - высокослоистые, Sc - слоисто-кучевые, Ns - слоисто-дождевые, Cu - кучевые, Cb - кучево-дождевые. Подробнее классификацию облаков см. в Атласе облаков (PDF).
  • T - Температура воздуха - температура, измеренная на высоте 2 м над землей.
  • Td - Температура точки росы - температура, при понижении до которой содержащийся в воздухе водяной пар достигнет насыщения.
  • f - Относительная влажность воздуха - влажноcть воздуха, измеренная на высоте 2 м над землей.
  • Te - Эффективная температура - температура, которую ощущает одетый по сезону человек в тени. Характеристика душности погоды. При расчете учитывается влияние влажности воздуха и скорости ветра на теплоощущения человека.
  • Tes - Эффективная температура на солнце - температура, которую ощущает человек, с поправкой на солнечный нагрев. Характеристика знойности погоды. Зависит от высоты солнца над горизонтом, облачности и скорости ветра. Ночью, в пасмурную погоду, а также при ветре 12 м/с и более поправка равна нулю.
  • P - Атмосферное давление - приведенное к уровню моря атмосферное давление.
  • Po - Атмосферное давление - измеренное на уровне метеостанции атмосферное давление.
  • Tmin - Минимальная температура - минимум температуры воздуха на высоте 2 м над землей.
  • Tmax - Максимальная температура - максимум температуры воздуха на высоте 2 м над землей.
  • R - Количество осадков - Количество выпавших осадков за период времени, мм. При наведении курсора мыши на число - период времени, за который выпало указанное количество осадков.
  • R24 - Количество осадков - Количество выпавших осадков за 24 часа, мм.
  • S - Снежный покров - Высота снежного покрова, см. При наведении курсора мыши на число - состояние снежного покрова и степень покрытия местности в баллах.